Home > Weather > Al Jizah > Past weeks

Flag for Egypt Weather for the Past 2 Weeks in Al Jizah, Egypt

Now
88 °F

Sunny.


Feels Like: 85 °F
Forecast: 64 / 82 °F
Wind: 15 mph from Southwest

Location: Cairo Airport

Current Time: May 5, 2016 at 2:55:22 PM

Latest Report: May 5, 2016 at 2:00 PM


Visibility: 10 mi

Pressure: 29.86 "Hg

Humidity: 22%

Dew Point: 45 °F

Location of Al JizahLocation

Historic Weather in Al Jizah — Graph

°F

Al Jizah Temperature Yesterday

Maximum temperature yesterday: 82 °F (at 1:00 PM)
Minimum temperature yesterday: 70 °F (at 2:30 AM)
Average temperature yesterday: 76 °F

High & Low Weather Summary for the Past Weeks

 TemperatureHumidityPressure
High108 °F (Apr 26, 3:00 PM)88% (Apr 23, 7:30 AM)30.07 "Hg (Apr 23, 7:30 AM)
Low64 °F (Apr 28, 4:00 AM)7% (Apr 24, 2:00 PM)29.56 "Hg (Apr 24, 6:30 PM)
Average81 °F40%29.88 "Hg
* Reported Apr 20 1:00 PM — May 5 1:30 PM, Al Jizah, Weather by CustomWeather, © 2016

Note: Actual official high and low records may vary slightly from our data, if they occured in-between our weather recording intervals... More about our weather records

Advertising

Al Jizah Weather History for the Previous 24 Hours

Scroll right to see more
 ConditionsComfort  
Time TempWeatherWind HumidityBarometerVisibility
1:30 PM
Thu, May 5
84 °FSunny.17 mph20%29.86 "Hg10 mi
1:00 PM82 °FSunny.15 mph21%29.86 "Hg10 mi
12:30 PM82 °FSunny.12 mph21%29.89 "Hg10 mi
12:00 PM84 °FSunny.9 mph20%29.89 "Hg10 mi
11:30 AM84 °FSunny.6 mph25%29.89 "Hg10 mi
11:00 AM84 °FSunny.6 mph25%29.89 "Hg10 mi
10:00 AM82 °FSunny.13 mph26%29.92 "Hg10 mi
9:30 AM82 °FSunny.14 mph26%29.92 "Hg10 mi
9:00 AM82 °FSunny.14 mph26%29.92 "Hg10 mi
8:30 AM79 °FSunny.10 mph30%29.92 "Hg10 mi
8:00 AM79 °FSunny.10 mph30%29.92 "Hg10 mi
7:30 AM75 °FSunny.6 mph36%29.92 "Hg10 mi
7:00 AM75 °FSunny.6 mph36%29.92 "Hg10 mi
6:30 AM72 °FSunny.No wind57%29.92 "Hg10 mi
6:00 AM72 °FSunny.No wind57%29.92 "Hg10 mi
5:30 AM68 °FSunny.7 mph69%29.89 "Hg10 mi
5:00 AM68 °FClear.7 mph69%29.89 "Hg10 mi
4:00 AM70 °FClear.6 mph69%29.92 "Hg10 mi
3:30 AM70 °FClear.10 mph69%29.92 "Hg10 mi
3:00 AM70 °FClear.12 mph69%29.92 "Hg10 mi
2:30 AM70 °FClear.9 mph69%29.92 "Hg10 mi
2:00 AM72 °FClear.12 mph65%29.92 "Hg10 mi
1:30 AM72 °FClear.12 mph65%29.92 "Hg10 mi
1:00 AM72 °FClear.8 mph65%29.92 "Hg10 mi
12:30 AM72 °FClear.9 mph69%29.95 "Hg10 mi
12:00 AM73 °FClear.13 mph65%29.95 "Hg10 mi
11:00 PM
Wed, May 4
75 °FClear.10 mph39%29.95 "Hg4 mi
10:30 PM75 °FClear.12 mph39%29.95 "Hg4 mi
10:00 PM75 °FClear.10 mph39%29.95 "Hg4 mi
9:00 PM77 °FClear.10 mph36%29.95 "Hg10 mi
8:30 PM77 °FClear.10 mph39%29.95 "Hg10 mi
8:00 PM79 °FClear.12 mph37%29.95 "Hg10 mi
7:30 PM81 °FClear.7 mph32%29.95 "Hg10 mi
7:00 PM81 °FClear.8 mph30%29.95 "Hg10 mi
6:30 PM81 °FSunny.7 mph30%29.95 "Hg10 mi
6:00 PM81 °FSunny.6 mph30%29.95 "Hg10 mi
5:30 PM81 °FSunny.9 mph30%29.95 "Hg10 mi
5:00 PM81 °FSunny.9 mph30%29.95 "Hg10 mi
4:30 PM82 °FSunny.7 mph30%29.95 "Hg10 mi
4:00 PM82 °FSunny.9 mph30%29.95 "Hg10 mi
3:30 PM82 °FSunny.10 mph30%29.95 "Hg10 mi
3:00 PM82 °FSunny.10 mph28%29.95 "Hg10 mi
2:30 PM82 °FSunny.9 mph28%29.95 "Hg10 mi
2:00 PM82 °FSunny.3 mph28%29.95 "Hg10 mi
Weather by CustomWeather, © 2016

See weather overviewHow to use our weather pages